IRIDIUM 172 (43927 NORAD) Tracking and Keplerian Element Data

This shows tracking and keplerian element data for the satellite.

Feedback or suggestion? Click here.




ElementValue
Catalog43927
NameIRIDIUM 172
Epoch Orbit134
Epoch Day20.89725171
Epoch Year2019
RAAN43.6879
Inclination86.4985
Eccentricity0.0001944
Argument of Perigee67.525
Mean Anonmoly292.6161
Mean Motion14.52356209
Decay Rate2.3E-07
L11 43927U 19002F 19020.89725171 .00000023 00000-0 47874-6 0 9990
L22 43927 86.4985 43.6879 0001944 67.5250 292.6161 14.52356209 1349

Live tracking and technical data element details for IRIDIUM 172 (NORAD 43927). IRIDIUM 172 can be tracked NOW for your location showing map with azimuth and elevation plus other details from your city location.

Track the satellite on the map from your city or location and see movement details for azimuth, elevation, latitude, longitude, range, height, and movement on the map or in text.







IsCatalogInMostPopularTable: catalog: 43927, numindb: 2
Update: records affected: 1



GetName: 43927 IRIDIUM 172

Hit Count: updated at: Wed, 23 Jan 2019 03:10:21 GMT